When you browse on this site, cookies collect data to enhance your experience and personalize the content and advertising you see.
Visit our Privacy Policy to learn more. By continuing to use the site, you agree to this use of cookies and data.
  • In Belgium
  • List of Countries
  • For 7 days
  • Water Temperature
  • Satellite Maps
  • Weather Map
  • Weather Widgets
  • user-avatar
    Login

    Hourly Weather Namyur

    Today, 20 February, Wednesday

    Time Temperature Precipitation Wind Pressure Humidity
    00:00 +4°C° 0 mm 2 mps 756 mmHg 88%
    01:00 +4°C° 0 mm 2 mps 756 mmHg 89%
    02:00 +4°C° 0 mm 2 mps 756 mmHg 90%
    03:00 +2°C° 0 mm 3 mps 756 mmHg 91%
    04:00 +2°C° 0 mm 3 mps 756 mmHg 92%
    05:00 +2°C° 0 mm 3 mps 756 mmHg 93%
    06:00 +2°C° 0 mm 3 mps 756 mmHg 94%
    07:00 +3°C° 0 mm 3 mps 756 mmHg 91%
    08:00 +4°C° 0 mm 4 mps 756 mmHg 88%
    09:00 +5°C° 0 mm 4 mps 756 mmHg 85%
    10:00 +6°C° 0 mm 4 mps 757 mmHg 78%
    11:00 +8°C° 0 mm 4 mps 757 mmHg 71%
    12:00 +10°C° 0 mm 4 mps 757 mmHg 65%
    13:00 +11°C° 0 mm 4 mps 757 mmHg 64%
    14:00 +11°C° 0 mm 4 mps 757 mmHg 64%
    15:00 +11°C° 0 mm 4 mps 756 mmHg 63%
    16:00 +10°C° 0 mm 3 mps 757 mmHg 71%
    17:00 +8°C° 0 mm 3 mps 757 mmHg 78%
    18:00 +7°C° 0 mm 2 mps 757 mmHg 86%
    19:00 +7°C° 0 mm 2 mps 757 mmHg 88%
    20:00 +6°C° 0 mm 2 mps 758 mmHg 90%
    21:00 +6°C° 0 mm 2 mps 758 mmHg 91%
    22:00 +6°C° 0 mm 2 mps 758 mmHg 92%
    23:00 +6°C° 0 mm 2 mps 758 mmHg 92%

    Tomorrow, 21 February, Thursday

    Time Temperature Precipitation Wind Pressure Humidity
    00:00 +6°C° 0 mm 2 mps 758 mmHg 93%
    01:00 +5°C° 0 mm 2 mps 758 mmHg 93%
    02:00 +5°C° 0 mm 2 mps 759 mmHg 93%
    03:00 +5°C° 0 mm 2 mps 759 mmHg 93%
    04:00 +5°C° 0 mm 2 mps 759 mmHg 92%
    05:00 +5°C° 0 mm 2 mps 759 mmHg 92%
    06:00 +5°C° 0 mm 2 mps 759 mmHg 91%
    07:00 +5°C° 0 mm 3 mps 759 mmHg 89%
    08:00 +7°C° 0 mm 3 mps 760 mmHg 87%
    09:00 +8°C° 0 mm 3 mps 760 mmHg 84%
    10:00 +9°C° 0 mm 3 mps 760 mmHg 79%
    11:00 +11°C° 0 mm 3 mps 760 mmHg 73%
    12:00 +12°C° 0 mm 3 mps 760 mmHg 68%
    13:00 +12°C° 0 mm 3 mps 760 mmHg 68%
    14:00 +12°C° 0 mm 3 mps 760 mmHg 68%
    15:00 +14°C° 0 mm 2 mps 760 mmHg 67%
    16:00 +12°C° 0 mm 2 mps 760 mmHg 73%
    17:00 +10°C° 0 mm 2 mps 761 mmHg 79%
    18:00 +9°C° 0 mm 1 mps 761 mmHg 85%
    19:00 +9°C° 0 mm 1 mps 761 mmHg 86%
    20:00 +9°C° 0 mm 1 mps 762 mmHg 88%
    21:00 +8°C° 0 mm 1 mps 762 mmHg 89%
    22:00 +8°C° 0 mm 1 mps 762 mmHg 89%
    23:00 +8°C° 0 mm 1 mps 763 mmHg 90%

    Day after tomorrow, 22 February, Friday

    Time Temperature Precipitation Wind Pressure Humidity
    00:00 +8°C° 0 mm 1 mps 763 mmHg 90%
    01:00 +7°C° 0 mm 1 mps 763 mmHg 90%
    02:00 +7°C° 0 mm 1 mps 763 mmHg 90%
    03:00 +7°C° 0 mm 1 mps 763 mmHg 91%
    04:00 +7°C° 0 mm 1 mps 764 mmHg 91%
    05:00 +6°C° 0 mm 0 mps 764 mmHg 91%
    06:00 +5°C° 0 mm 0 mps 764 mmHg 90%
    07:00 +7°C° 0 mm 0 mps 764 mmHg 87%
    08:00 +8°C° 0 mm 0 mps 765 mmHg 84%
    09:00 +9°C° 0 mm 0 mps 765 mmHg 81%
    10:00 +12°C° 0 mm 1 mps 765 mmHg 76%
    11:00 +13°C° 0 mm 1 mps 765 mmHg 71%
    12:00 +14°C° 0 mm 2 mps 766 mmHg 65%
    13:00 +14°C° 0 mm 2 mps 765 mmHg 66%
    14:00 +15°C° 0 mm 2 mps 765 mmHg 68%
    15:00 +15°C° 0 mm 2 mps 765 mmHg 69%
    16:00 +14°C° 0 mm 2 mps 765 mmHg 75%
    17:00 +12°C° 0 mm 2 mps 765 mmHg 82%
    18:00 +10°C° 0 mm 2 mps 766 mmHg 88%
    19:00 +9°C° 0 mm 2 mps 766 mmHg 90%
    20:00 +9°C° 0 mm 2 mps 766 mmHg 92%
    21:00 +8°C° 0 mm 2 mps 766 mmHg 94%
    22:00 +8°C° 0 mm 2 mps 766 mmHg 94%
    23:00 +7°C° 0 mm 2 mps 766 mmHg 93%

    23 February, Saturday

    Time Temperature Precipitation Wind Pressure Humidity
    00:00 +6°C° 0 mm 2 mps 766 mmHg 92%
    01:00 +6°C° 0 mm 2 mps 766 mmHg 92%
    02:00 +6°C° 0 mm 2 mps 766 mmHg 91%
    03:00 +6°C° 0 mm 1 mps 765 mmHg 91%
    04:00 +5°C° 0 mm 2 mps 765 mmHg 91%
    05:00 +5°C° 0 mm 2 mps 765 mmHg 91%
    06:00 +4°C° 0 mm 2 mps 765 mmHg 91%
    07:00 +6°C° 0 mm 2 mps 765 mmHg 86%
    08:00 +7°C° 0 mm 3 mps 766 mmHg 81%
    09:00 +8°C° 0 mm 3 mps 766 mmHg 75%
    10:00 +9°C° 0 mm 3 mps 766 mmHg 68%
    11:00 +11°C° 0 mm 3 mps 766 mmHg 61%
    12:00 +13°C° 0 mm 3 mps 765 mmHg 54%
    13:00 +13°C° 0 mm 3 mps 765 mmHg 52%
    14:00 +13°C° 0 mm 3 mps 765 mmHg 51%
    15:00 +14°C° 0 mm 3 mps 764 mmHg 49%
    16:00 +12°C° 0 mm 3 mps 764 mmHg 51%
    17:00 +10°C° 0 mm 3 mps 765 mmHg 54%
    18:00 +8°C° 0 mm 2 mps 765 mmHg 56%
    19:00 +7°C° 0 mm 2 mps 765 mmHg 55%
    20:00 +6°C° 0 mm 2 mps 765 mmHg 53%
    21:00 +5°C° 0 mm 2 mps 765 mmHg 52%
    22:00 +5°C° 0 mm 2 mps 765 mmHg 52%
    23:00 +5°C° 0 mm 2 mps 765 mmHg 51%

    24 February, Sunday

    Time Temperature Precipitation Wind Pressure Humidity
    00:00 +4°C° 0 mm 2 mps 765 mmHg 51%
    01:00 +4°C° 0 mm 2 mps 765 mmHg 51%
    02:00 +4°C° 0 mm 2 mps 765 mmHg 51%
    03:00 +4°C° 0 mm 2 mps 765 mmHg 51%
    04:00 +4°C° 0 mm 2 mps 765 mmHg 51%
    05:00 +3°C° 0 mm 2 mps 765 mmHg 50%
    06:00 +3°C° 0 mm 2 mps 765 mmHg 50%
    07:00 +5°C° 0 mm 2 mps 765 mmHg 49%
    08:00 +6°C° 0 mm 2 mps 765 mmHg 47%
    09:00 +7°C° 0 mm 2 mps 765 mmHg 46%
    10:00 +9°C° 0 mm 2 mps 765 mmHg 43%
    11:00 +12°C° 0 mm 2 mps 765 mmHg 40%
    12:00 +14°C° 0 mm 2 mps 765 mmHg 36%
    13:00 +15°C° 0 mm 2 mps 765 mmHg 39%
    14:00 +15°C° 0 mm 2 mps 765 mmHg 41%
    15:00 +15°C° 0 mm 2 mps 765 mmHg 43%
    16:00 +13°C° 0 mm 2 mps 765 mmHg 48%
    17:00 +12°C° 0 mm 2 mps 765 mmHg 53%
    18:00 +9°C° 0 mm 2 mps 765 mmHg 58%
    19:00 +8°C° 0 mm 2 mps 765 mmHg 59%
    20:00 +7°C° 0 mm 2 mps 765 mmHg 59%
    21:00 +7°C° 0 mm 2 mps 766 mmHg 60%
    22:00 +8°C° 0 mm 1 mps 766 mmHg 59%
    23:00 +7°C° 0 mm 1 mps 766 mmHg 58%

    25 February, Monday

    Time Temperature Precipitation Wind Pressure Humidity
    00:00 +6°C° 0 mm 0 mps 766 mmHg 58%
    01:00 +5°C° 0 mm 0 mps 766 mmHg 58%
    02:00 +5°C° 0 mm 0 mps 766 mmHg 58%
    03:00 +6°C° 0 mm 1 mps 766 mmHg 57%
    04:00 +6°C° 0 mm 1 mps 766 mmHg 58%
    05:00 +6°C° 0 mm 1 mps 766 mmHg 58%
    06:00 +5°C° 0 mm 1 mps 766 mmHg 59%
    07:00 +7°C° 0 mm 1 mps 766 mmHg 58%
    08:00 +8°C° 0 mm 1 mps 767 mmHg 57%
    09:00 +8°C° 0 mm 2 mps 767 mmHg 56%
    10:00 +10°C° 0 mm 2 mps 767 mmHg 54%
    11:00 +12°C° 0 mm 3 mps 767 mmHg 53%
    12:00 +14°C° 0 mm 3 mps 766 mmHg 51%
    13:00 +14°C° 0 mm 3 mps 766 mmHg 52%
    14:00 +14°C° 0 mm 3 mps 766 mmHg 53%
    15:00 +15°C° 0 mm 4 mps 766 mmHg 55%
    16:00 +13°C° 0 mm 3 mps 766 mmHg 61%
    17:00 +11°C° 0 mm 3 mps 766 mmHg 67%
    18:00 +9°C° 0 mm 3 mps 766 mmHg 74%
    19:00 +9°C° 0 mm 3 mps 766 mmHg 76%
    20:00 +8°C° 0 mm 3 mps 766 mmHg 78%
    21:00 +7°C° 0 mm 3 mps 767 mmHg 80%
    22:00 +7°C° 0 mm 2 mps 766 mmHg 80%
    23:00 +7°C° 0 mm 2 mps 766 mmHg 81%
    Show more